Location: Toronto
(43.6667°N, 79.4167°W)
Time: 13:07:20
(UTC-04:00)

X-37B - Pass Details

Date: 19 June 2021
Orbit: 383 x 392 km, 45.0° (Epoch: 01 July)

Event Time Altitude Azimuth Distance (km) Brightness Sun altitude
Exits shadow 02:01:22 23° 75° (ENE) 883 2.6 -22.2°
Drops below altitude 10° 02:02:41 10° 77° (ENE) 1,406 3.7 -22.2°
Sets 02:04:46 0° 78° (ENE) 2,262 4.8 -22.1°
